Regional Weather Roundup
Issued by NWS

Home | Current Version | Previous Version | Text Only | Print | Product List | Glossary Off
Versions: 1 2 3 4 5 6 7 8 9 10 11 12 13 14 15 16 17 18 19 20 21 22 23 24 25 26 27 28 29 30 31 32 33 34 35 36 37 38 39 40 41 42 43 44 45 46 47 48 49 50

094
ASUS45 KBOI 231510
RWRID

IDAHO REGIONAL WEATHER ROUNDUP
NATIONAL WEATHER SERVICE BOISE ID
900 AM MDT SAT JUL 23 2016

NOTE: "FAIR" INDICATES FEW OR NO CLOUDS BELOW 12000 FEET
WITH NO SIGNIFICANT WEATHER AND/OR OBSTRUCTIONS TO VISIBILITY

IDZ012-014-231600-
SOUTHWEST IDAHO


CITY           SKY/WX    TMP DP  RH WIND       PRES   REMARKS
BOISE          SUNNY     63  43  48 NW6       30.19R
CALDWELL       NOT AVBL
MOUNTAIN HOME  SUNNY     68  40  36 NW17      30.17S
$$

IDZ016-017-231600-
SOUTHCENTRAL IDAHO


CITY           SKY/WX    TMP DP  RH WIND       PRES   REMARKS
BURLEY         SUNNY     64  44  48 W15G24    30.19R
JEROME         SUNNY     64  42  44 SW12      30.22R
TWIN FALLS     SUNNY     67  36  31 SW15      30.22S
$$

IDZ019>023-231600-
SOUTHEAST IDAHO


CITY           SKY/WX    TMP DP  RH WIND       PRES   REMARKS
IDAHO FALLS    SUNNY     63  43  48 SW18      30.21R
POCATELLO      SUNNY     67  39  35 SW24G30   30.21R
REXBURG        SUNNY     62  40  44 S10       30.20S
$$

IDZ006-010-011-018-031-032-231600-
CENTRAL IDAHO MOUNTAINS


CITY           SKY/WX    TMP DP  RH WIND       PRES   REMARKS
MCCALL         SUNNY     60  40  47 N8        30.23S
HAILEY         SUNNY     59  34  38 NW13      30.24R
STANLEY          N/A     51  34  52 CALM      30.30S
SALMON         SUNNY     63  39  42 CALM      30.20F
CHALLIS        SUNNY     63  42  46 CALM      30.23R
$$

IDZ002-004-006-007-026-231600-
NORTHERN IDAHO


CITY           SKY/WX    TMP DP  RH WIND       PRES   REMARKS
LEWISTON       MOSUNNY   66  47  50 CALM      30.19R
LOWELL           N/A     59  52  77 CALM      30.21S
COEUR D`ALENE  SUNNY     59  48  67 S9        30.16S
MULLAN PASS    MOSUNNY   50  44  80 CALM      30.26R
$$




USA.gov is the U.S. government's official web portal to all federal, state and local government web resources and services.